Regional Weather Roundup
Issued by NWS State College, PA

Home | Current Version | Previous Version | Text Only | Print | Product List | Glossary On
Versions: 1 2 3 4 5 6 7 8 9 10 11 12 13 14 15 16 17 18 19 20 21 22 23 24 25 26 27 28 29 30 31 32 33 34 35 36 37 38 39 40 41 42 43 44 45 46 47 48 49 50
000
ASUS41 KCTP 201210
RWRCTP

REGIONAL WEATHER ROUNDUP
NATIONAL WEATHER SERVICE STATE COLLEGE PA
800 AM EDT SAT SEP 20 2014

Note: "fair" indicates few or no clouds below 12,000 feet with no
significant weather and/or obstructions to visibility.

* = STATION THAT DOES NOT REPORT PRECIPITATION /E.G. RAIN...SNOW...ETC/
    THUNDER OR FOG.

PAZ002>004-007>009-013>016-020>023-029>032-201300-
WESTERN PENNSYLVANIA

CITY           SKY/WX    TMP DP  RH WIND       PRES   REMARKS
ERIE           PTCLDY    63  55  75 S14       30.08R
MEADVILLE      PTCLDY    60  54  80 S8        30.13R
FRANKLIN*      CLOUDY    57  52  82 S9        30.16R
NEW CASTLE     NOT AVBL
BEAVER COUNTY  NOT AVBL
BUTLER*        MOCLDY    59  54  82 S5        30.17S
PITTSBURGH INT MOCLDY    57  54  89 SE5       30.15R
PITTSBURGH     PTCLDY    60  53  77 S6        30.15R
INDIANA*       PTSUNNY   63  55  77 S10       30.22R
LATROBE        PTCLDY    63  55  77 S9        30.17R
WASHINGTON CO* PTCLDY    57  54  88 CALM      30.17R
$$

PAZ004>006-010>012-017>019-024>028-033>037-041-042-045-046-049>053-201300-
CENTRAL PENNSYLVANIA

CITY           SKY/WX    TMP DP  RH WIND       PRES   REMARKS
BRADFORD       CLOUDY    59  54  83 S12G17    30.17R
DUBOIS         CLOUDY    59  55  87 S6        30.18R
CLEARFIELD     CLOUDY    58  56  93 N3        30.21R
JOHNSTOWN      MOSUNNY   57  54  89 S7        30.22R
ALTOONA        PTSUNNY   61  58  90 S9        30.23S
STATE COLLEGE  CLOUDY    63  57  82 S10       30.22S
WILLIAMSPORT   CLOUDY    63  56  78 S16G29    30.20S
SELINSGROVE    CLOUDY    63  57  81 S6        30.24S
FT INDIANTOWN  CLOUDY    58  58  99 NE5       30.27F
CAPITAL CITY   CLOUDY    60  56  86 E7        30.26F FOG
HARRISBURG     CLOUDY    61  56  83 SE7       30.25F FOG
YORK           CLOUDY    61  59  93 CALM      30.26F FOG
$$

PAZ038>040-043-044-047-048-054-055-060>062-067>071-201300-
EASTERN PENNSYLVANIA

CITY           SKY/WX    TMP DP  RH WIND       PRES   REMARKS
SCRANTON       CLOUDY    61  54  77 VRB5      30.25S
MOUNT POCONO   CLOUDY    55  53  93 S9        30.29F FOG
ALLENTOWN      CLOUDY    58  53  84 NE3       30.29S
QUAKERTOWN*    CLOUDY    57  55  94 CALM      30.30S
READING        CLOUDY    59  54  83 S6        30.27F
LANCASTER      MOSUNNY   57  55  93 E5        30.27S FOG
COATESVILLE    CLOUDY    55  55 100 N3        30.29S FOG
POTTSTOWN      CLOUDY    57  54  89 CALM      30.30S
BLUE BELL      SUNNY     55  55 100 CALM      30.28S
DOYLESTOWN     MOSUNNY   56  54  93 CALM      30.29F
WILLOW GROVE   NOT AVBL
NORTH PHILA    SUNNY     58  52  80 NE6       30.31S
PHILADELPHIA   MOSUNNY   61  57  87 E7        30.28F
$$


USA.gov is the U.S. government's official web portal to all federal, state and local government web resources and services.